Location: *
(31.2983°S, 151.4094°E)
Time: 20:35:30
(UTC+00:00)

Meteor 2-3 Rocket - Pass Details

Date: 25 August 2019
Orbit: 842 x 885 km, 81.2° (Epoch: 13 October)

Event Time Altitude Azimuth Distance (km) Brightness Sun altitude
Rises 18:51:46 0° 347° (NNW) 3,392 6.7 -19.3°
Reaches altitude 10° 18:54:10 10° 344° (NNW) 2,469 6.0 -18.8°
Maximum altitude 18:59:44 68° 262° (W) 927 3.6 -17.6°
Drops below altitude 10° 19:05:27 10° 178° (S) 2,526 6.2 -16.3°
Sets 19:07:56 0° 175° (S) 3,477 6.9 -15.8°
